This is the latest recevied weather packets stored in our database for station/object W3EJE-13. If no packets are shown the sender has not sent any weather packets the latest 10 day(s).
| Time | Temp. | Humidity | Pressure | Rain* | Wind** | Luminosity | Snow |
|---|---|---|---|---|---|---|---|
| 1777562590 | 10° C | 77% | 1012.3 hPa | 0 mm | - | 265 W/m² | - |
| 1777562289 | 10° C | 77% | 1012.4 hPa | 0 mm | - | 278 W/m² | - |
| 1777561986 | 10° C | 77% | 1012 hPa | 0 mm | - | 303 W/m² | - |
| 1777561683 | 10° C | 76% | 1012 hPa | 0 mm | - | 783 W/m² | - |
| 1777561378 | 9.44° C | 78% | 1012.3 hPa | 0 mm | - | 160 W/m² | - |
| 1777561074 | 9.44° C | 79% | 1012.4 hPa | 0 mm | - | 162 W/m² | - |
| 1777560769 | 9.44° C | 79% | 1012.3 hPa | 0 mm | - | 184 W/m² | - |
| 1777560467 | 10° C | 76% | 1012.4 hPa | 0 mm | - | 156 W/m² | - |
| 1777560165 | 9.44° C | 79% | 1012.6 hPa | 0 mm | - | 764 W/m² | - |
| 1777559861 | 9.44° C | 78% | 1012 hPa | 0 mm | - | 542 W/m² | - |
| 1777559557 | 9.44° C | 78% | 1012.3 hPa | 0 mm | - | 219 W/m² | - |
| 1777559254 | 8.89° C | 78% | 1012.3 hPa | 0 mm | - | 257 W/m² | - |
| 1777558950 | 8.89° C | 77% | 1012.1 hPa | 0 mm | - | 200 W/m² | - |
| 1777558646 | 8.89° C | 77% | 1012 hPa | 0 mm | - | 240 W/m² | - |
| 1777558341 | 8.89° C | 80% | 1012.1 hPa | 0 mm | - | 315 W/m² | - |
| 1777558039 | 8.89° C | 81% | 1012.1 hPa | 0 mm | - | 126 W/m² | - |
| 1777557734 | 9.44° C | 79% | 1012 hPa | 0 mm | - | 95 W/m² | - |
| 1777557431 | 9.44° C | 77% | 1012 hPa | 0 mm | - | 167 W/m² | - |
| 1777557128 | 10° C | 79% | 1011.8 hPa | 0 mm | - | 243 W/m² | - |
| 1777556823 | 8.89° C | 79% | 1011.8 hPa | 0 mm | - | 156 W/m² | - |
| 1777556520 | 8.89° C | 79% | 1011.7 hPa | 0 mm | - | 85 W/m² | - |
| 1777556219 | 9.44° C | 77% | 1011.6 hPa | 0 mm | - | 75 W/m² | - |
| 1777555915 | 8.89° C | 77% | 1011.7 hPa | 0 mm | - | 179 W/m² | - |
| 1777555611 | 8.89° C | 79% | 1011.6 hPa | 0 mm | - | 97 W/m² | - |
| 1777555308 | 8.89° C | 80% | 1011.6 hPa | 0 mm | - | 86 W/m² | - |
* Rain latest hour (hover to see other rain measurements)
** Current wind speed in m/s (hover to see current wind gust speed)